Location: Breungeshain
(50.5000°N, 9.2000°E)
Time: 10:14:03
(UTC+00:00)

ISS - Pass Details

Date: 23 May 2018
Orbit: 402 x 407 km, 51.6° (Epoch: 26 May)

Event Time Altitude Azimuth Distance (km) Brightness Sun altitude
Rises 01:48:16 0° 285° (WNW) 2,320 -0.2 -11.8°
Reaches altitude 10° 01:50:35 10° 271° (W) 1,458 -1.3 -11.6°
Maximum altitude 01:53:17 24° 215° (SW) 885 -2.7 -11.3°
Drops below altitude 10° 01:55:58 10° 159° (SSE) 1,451 -1.3 -11.1°
Sets 01:58:16 0° 145° (SE) 2,307 -0.2 -10.8°
